Location: Hartford
(41.7640°N, 72.6860°W)
Time: 04:47:41
(UTC-04:00)

Amateur Radio Satellites - All Passes

Search period start: 26 September 2016 04:17
Search period end: 27 September 2016 04:17
Location: Hartford, 41.7640°N, 72.6860°W

Satellite Date Start Highest point End Downlink Frequencies (MHz)
Time Altitude Azimuth
Oscar 19 26 Sep 04:19:14 04:20:17 11° 303° (WNW) 04:21:20 437.125/150
KKS-1 26 Sep 04:29:14 04:33:32 48° 260° (W) 04:37:52 437.445
AIST 2 26 Sep 04:32:39 04:36:45 77° 120° (ESE) 04:40:53 435.215
CUSAT 1 26 Sep 04:41:24 04:45:30 15° 55° (NE) 04:49:22 437.405
AIST 1 26 Sep 04:55:33 04:58:59 23° 88° (E) 05:02:25
Gurwin Techsat 1B 26 Sep 05:00:05 05:00:33 10° 304° (NW) 05:01:02 435.225
CUBESAT XI-V 26 Sep 05:01:11 05:05:50 69° 75° (ENE) 05:10:33 437.345
PCSat 26 Sep 05:04:00 05:09:22 70° 116° (ESE) 05:14:46 145.827
YUBILEINY 26 Sep 05:04:36 05:12:12 32° 291° (WNW) 05:19:51 435.215
ITAMSAT 1 26 Sep 05:04:46 05:09:06 27° 295° (WNW) 05:13:25 435.822/435.867
STARS 26 Sep 05:09:13 05:13:17 37° 262° (W) 05:17:21 437.465
Cosmos 2504 26 Sep 05:23:00 05:30:12 50° 283° (WNW) 05:37:10 435.465 / 435.565
HORYU 2 26 Sep 05:40:12 05:44:26 41° 99° (E) 05:48:39 437.375
DANDE 26 Sep 05:49:03 05:55:23 23° 63° (ENE) 06:01:36 436.750
LilacSat-2 26 Sep 06:03:19 06:05:06 13° 91° (E) 06:06:51 437.200
AO-7 26 Sep 06:03:20 06:10:50 40° 300° (WNW) 06:18:19 29.400- 29.500
AIST 2 26 Sep 06:13:27 06:15:45 14° 320° (NW) 06:18:04 435.215
CUSAT 1 26 Sep 06:21:17 06:29:12 69° 77° (ENE) 06:35:55 437.405
AO-85 26 Sep 06:23:40 06:27:49 61° 54° (NE) 06:31:42 145.980
RS-15 26 Sep 06:24:24 06:36:30 63° 246° (WSW) 06:48:18 29.354- 29.394
BRITE-PL 26 Sep 06:31:34 06:36:32 84° 105° (ESE) 06:41:02 437.365/2234.400
GOMX 1 26 Sep 06:32:06 06:36:09 33° 96° (E) 06:40:00 467.674
AIST 1 26 Sep 06:32:32 06:36:25 30° 285° (WNW) 06:40:18
O/OREOS (USA 219) 26 Sep 06:35:50 06:37:23 12° 97° (E) 06:38:56 437.305
NOAA 15 26 Sep 06:38:47 06:43:51 44° 99° (E) 06:48:51 137.62
CUBESAT XI-V 26 Sep 06:41:51 06:43:42 12° 271° (W) 06:45:34 437.345
Cubesat XI-IV 26 Sep 06:47:16 06:52:22 42° 99° (E) 06:57:25 437.490
CUTE-I 26 Sep 06:48:06 06:53:12 44° 99° (E) 06:58:18 437.470
PCSat 26 Sep 06:49:15 06:53:17 21° 316° (NW) 06:57:21 145.827
STRAND 1 26 Sep 06:50:05 06:54:56 47° 70° (ENE) 06:59:50 437.568
DOVE 4 26 Sep 07:04:11 07:07:53 29° 95° (E) 07:11:32 437.250
NOAA 18 26 Sep 07:11:23 07:16:46 56° 102° (ESE) 07:22:08 137.9125
HORYU 2 26 Sep 07:17:30 07:20:40 20° 295° (WNW) 07:23:51 437.375
HO-68 26 Sep 07:25:36 07:30:06 17° 90° (E) 07:34:35 435.675
DANDE 26 Sep 07:30:44 07:39:10 87° 260° (W) 07:47:09 436.750
GONETS M04 26 Sep 07:31:49 07:37:35 20° 78° (ENE) 07:43:22
LilacSat-2 26 Sep 07:35:57 07:39:37 44° 287° (WNW) 07:43:16 437.200
CUTE 1.7 + AOD 2 26 Sep 07:47:13 07:50:01 17° 92° (E) 07:52:48 437.475
CANX-2 26 Sep 07:47:44 07:50:54 20° 93° (E) 07:54:04 2200.000
SEEDS 26 Sep 07:53:06 07:55:12 13° 90° (E) 07:57:16 437.485
CUSAT 1 26 Sep 08:04:30 08:10:20 24° 278° (W) 08:15:35 437.405
AO-85 26 Sep 08:06:17 08:07:35 11° 253° (WSW) 08:08:53 145.980
GOMX 1 26 Sep 08:10:37 08:14:03 22° 294° (WNW) 08:17:21 467.674
O/OREOS (USA 219) 26 Sep 08:11:36 08:16:08 69° 295° (WNW) 08:20:43 437.305
BRITE-PL 26 Sep 08:12:30 08:14:07 12° 302° (WNW) 08:15:44 437.365/2234.400
CUBEBUG 2 26 Sep 08:16:46 08:18:45 13° 91° (E) 08:20:45 437.445
NOAA 15 26 Sep 08:19:06 08:23:21 25° 296° (WNW) 08:27:35 137.62
AAUSAT CUBESAT 2 26 Sep 08:21:25 08:23:46 15° 91° (E) 08:26:06 437.432
Cubesat XI-IV 26 Sep 08:27:50 08:32:11 26° 295° (WNW) 08:36:32 437.490
CUTE-I 26 Sep 08:28:41 08:33:00 25° 296° (WNW) 08:37:18 437.470
STRAND 1 26 Sep 08:30:35 08:34:21 21° 267° (W) 08:38:08 437.568
CINEMA 3 26 Sep 08:30:37 08:34:46 70° 101° (E) 08:39:00 145.822/145.860
UWE-3 26 Sep 08:38:43 08:41:15 15° 92° (E) 08:43:48 435.000/436.395/437.385
Cosmos 2499 26 Sep 08:39:52 08:46:29 41° 89° (E) 08:52:59 435.465 / 435.565
RS-15 26 Sep 08:41:40 08:46:15 13° 267° (W) 08:50:48 29.354- 29.394
DOVE 4 26 Sep 08:42:10 08:45:29 22° 293° (WNW) 08:48:43 437.250
NOAA 18 26 Sep 08:52:59 08:57:00 21° 298° (WNW) 09:01:01 137.9125
PRISM 26 Sep 08:56:47 09:00:58 87° 260° (W) 09:05:09 437.425
COMPASS 1 26 Sep 09:02:14 09:06:24 54° 100° (E) 09:10:31 437.405
HO-68 26 Sep 09:11:25 09:18:36 84° 288° (WNW) 09:25:45 435.675
ZACube-1 26 Sep 09:11:57 09:15:21 22° 94° (E) 09:18:47 437.345
Oscar 11 26 Sep 09:13:54 09:17:20 22° 94° (E) 09:20:46 145.826/435.025
DANDE 26 Sep 09:15:24 09:20:48 19° 280° (W) 09:26:04 436.750
CUTE 1.7 + AOD 2 26 Sep 09:21:58 09:26:02 42° 288° (WNW) 09:30:06 437.475
CANX-2 26 Sep 09:22:54 09:26:52 36° 289° (WNW) 09:30:48 2200.000
ANTELSAT 26 Sep 09:23:29 09:26:46 22° 67° (ENE) 09:30:03 437.575/2403.000
GONETS M04 26 Sep 09:24:20 09:33:11 86° 276° (W) 09:42:07
SEEDS 26 Sep 09:27:03 09:31:12 53° 286° (WNW) 09:35:20 437.485
TIGRISAT 26 Sep 09:43:55 09:47:46 34° 70° (ENE) 09:51:36 435.000
HUMSAT D 26 Sep 09:51:27 09:52:44 11° 90° (E) 09:54:00 437.325/437.525
CUBEBUG 2 26 Sep 09:51:31 09:55:41 55° 286° (WNW) 09:59:57 437.445
AAUSAT CUBESAT 2 26 Sep 09:55:27 09:59:30 47° 287° (WNW) 10:03:30 437.432
BEESAT 3 26 Sep 09:55:42 09:59:28 39° 51° (NE) 10:03:11 437.485
DELFI C3 26 Sep 09:57:28 10:00:51 25° 95° (E) 10:04:13 145.870
FUNcube-1 26 Sep 10:06:29 10:10:49 83° 104° (ESE) 10:15:12 145.935
CINEMA 3 26 Sep 10:10:26 10:11:22 11° 298° (WNW) 10:12:19 145.822/145.860
UWE-3 26 Sep 10:13:49 10:17:56 48° 287° (WNW) 10:22:09 435.000/436.395/437.385
UNISAT 6 26 Sep 10:23:24 10:27:41 81° 259° (W) 10:31:58 437.425
QB50P1 26 Sep 10:26:51 10:29:13 15° 64° (ENE) 10:31:34 145.935-145.965
DUCHIFAT 1 26 Sep 10:27:22 10:29:17 13° 63° (ENE) 10:31:12 145.980
Cosmos 2499 26 Sep 10:33:15 10:39:38 34° 288° (WNW) 10:45:58 435.465 / 435.565
COMPASS 1 26 Sep 10:39:16 10:41:29 14° 296° (WNW) 10:43:41 437.405
POPSAT HIP 1 26 Sep 10:39:25 10:42:26 20° 66° (ENE) 10:45:28 437.405
BEESAT 2 26 Sep 10:47:05 10:51:05 67° 55° (NE) 10:55:04 435.950
ZACube-1 26 Sep 10:47:49 10:51:40 33° 290° (WNW) 10:55:35 437.345
Oscar 11 26 Sep 10:49:36 10:53:30 33° 290° (WNW) 10:57:24 145.826/435.025
NANOSAT C BR1 26 Sep 10:56:25 11:00:00 28° 69° (ENE) 11:03:36 145.865
PHONESAT 2.4 26 Sep 10:58:34 10:59:52 12° 150° (SSE) 11:01:11 2401.200-2431.200
ANTELSAT 26 Sep 10:59:28 11:03:18 32° 263° (W) 11:07:09 437.575/2403.000
HO-68 26 Sep 11:00:56 11:05:17 18° 307° (NW) 11:09:39 435.675
JAS-2 26 Sep 11:04:49 11:10:39 38° 64° (ENE) 11:17:11 435.910
QB50P2 26 Sep 11:17:25 11:21:31 54° 73° (ENE) 11:25:39 145.880/145.840
POLYITAN 1 26 Sep 11:19:39 11:23:45 55° 73° (ENE) 11:27:52 437.675
TIGRISAT 26 Sep 11:21:20 11:24:32 20° 266° (W) 11:27:44 435.000
HUMSAT D 26 Sep 11:24:31 11:28:44 63° 285° (WNW) 11:32:57 437.325/437.525
GONETS M04 26 Sep 11:25:38 11:31:26 19° 299° (WNW) 11:37:15
DELFI C3 26 Sep 11:32:18 11:35:36 24° 291° (WNW) 11:38:51 145.870
BEESAT 3 26 Sep 11:34:00 11:36:51 19° 248° (WSW) 11:39:40 437.485
ESTCUBE 1 26 Sep 11:34:53 11:38:38 25° 95° (E) 11:42:21 437.505/2401.250
VELOX 1 26 Sep 11:43:12 11:45:37 14° 91° (E) 11:48:01 145.980
CUBEBUG 1 26 Sep 11:51:26 11:54:54 23° 94° (E) 11:58:21 437.445
DUCHIFAT 1 26 Sep 12:00:21 12:04:29 58° 259° (W) 12:08:37 145.980
50 SAT 26 Sep 12:00:25 12:03:06 19° 94° (E) 12:05:46 437.505
QB50P1 26 Sep 12:00:28 12:04:34 50° 260° (W) 12:08:41 145.935-145.965
PCSat 26 Sep 12:10:19 12:12:23 12° 36° (NE) 12:14:27 145.827
BUGSAT 1 26 Sep 12:10:19 12:14:26 73° 74° (ENE) 12:18:30 437.445
POPSAT HIP 1 26 Sep 12:14:05 12:17:58 36° 262° (W) 12:21:52 437.405
Oscar 19 26 Sep 12:16:12 12:19:58 21° 63° (ENE) 12:23:45 437.125/150
AUBIESAT-1 26 Sep 12:24:35 12:26:17 13° 99° (E) 12:27:57 437.475
BEESAT 2 26 Sep 12:27:17 12:28:20 11° 252° (WSW) 12:29:25 435.950
NANOSAT C BR1 26 Sep 12:32:16 12:35:42 24° 265° (W) 12:39:08 145.865
PHONESAT 2.4 26 Sep 12:32:44 12:35:32 43° 165° (SSE) 12:38:23 2401.200-2431.200
AISAT 26 Sep 12:34:14 12:38:34 54° 100° (E) 12:42:51 437.250
SPROUT 26 Sep 12:40:35 12:44:27 33° 97° (E) 12:48:18 437.525
JAS-2 26 Sep 12:49:39 12:55:35 41° 265° (W) 13:02:16 435.910
UKube-1 26 Sep 12:50:58 12:55:00 37° 98° (E) 12:58:59 .
AIST 2 26 Sep 12:53:42 12:57:50 53° 54° (NE) 13:01:56 435.215
QB50P2 26 Sep 12:55:47 12:57:38 13° 269° (W) 12:59:31 145.880/145.840
POLYITAN 1 26 Sep 12:58:04 12:59:53 12° 269° (W) 13:01:42 437.675
Gurwin Techsat 1B 26 Sep 12:59:06 13:03:20 25° 64° (ENE) 13:07:34 435.225
M-CUBED/EXP-1 PRIME 26 Sep 12:59:07 13:02:20 49° 105° (ESE) 13:05:30 437.505
ESTCUBE 1 26 Sep 13:11:25 13:15:26 32° 291° (WNW) 13:19:26 437.505/2401.250
DX 1 26 Sep 13:15:55 13:20:17 87° 291° (WNW) 13:24:37 434.975-435.025
YUBILEINY 26 Sep 13:16:41 13:23:58 29° 67° (ENE) 13:31:12 435.215
Cosmos 2491 26 Sep 13:18:04 13:20:42 12° 72° (ENE) 13:23:20 435.465 / 435.565
VELOX 1 26 Sep 13:18:06 13:22:24 52° 288° (WNW) 13:26:39 145.980
AO-7 26 Sep 13:21:30 13:26:08 16° 47° (NE) 13:30:47 29.400- 29.500
CUBEBUG 1 26 Sep 13:27:22 13:31:13 31° 291° (WNW) 13:35:01 437.445
50 SAT 26 Sep 13:33:28 13:36:37 27° 290° (WNW) 13:39:43 437.505
PCSat 26 Sep 13:51:37 13:56:59 58° 56° (ENE) 14:02:19 145.827
Oscar 19 26 Sep 13:53:49 13:58:53 53° 260° (W) 14:03:59 437.125/150
AUBIESAT-1 26 Sep 13:57:56 14:00:53 30° 294° (WNW) 14:03:49 437.475
BEESAT 26 Sep 14:03:57 14:04:50 10° 89° (E) 14:05:43 436.000
TISAT 1 26 Sep 14:07:08 14:11:15 60° 101° (E) 14:15:22 437.305
PHONESAT 2.4 26 Sep 14:08:36 14:11:32 69° 183° (S) 14:14:30 2401.200-2431.200
AISAT 26 Sep 14:12:04 14:14:35 15° 297° (WNW) 14:17:04 437.250
SPROUT 26 Sep 14:16:57 14:20:11 22° 293° (WNW) 14:23:26 437.525
UKube-1 26 Sep 14:27:37 14:30:46 20° 295° (WNW) 14:33:57 .
AIST 2 26 Sep 14:33:25 14:35:52 15° 250° (WSW) 14:38:18 435.215
Gurwin Techsat 1B 26 Sep 14:37:57 14:42:59 44° 261° (W) 14:48:05 435.225
ITAMSAT 1 26 Sep 14:43:04 14:48:08 62° 72° (ENE) 14:53:16 435.822/435.867
SO-50 26 Sep 14:57:36 15:01:22 23° 112° (ESE) 15:05:07 436.795
Cosmos 2491 26 Sep 15:07:02 15:15:41 67° 92° (E) 15:24:25 435.465 / 435.565
AO-7 26 Sep 15:09:12 15:17:25 68° 67° (ENE) 15:25:39 29.400- 29.500
ITUPSAT 1 26 Sep 15:11:12 15:15:55 53° 100° (E) 15:20:36 437.325
YUBILEINY 26 Sep 15:12:49 15:21:23 64° 268° (W) 15:29:54 435.215
Cosmos 2504 26 Sep 15:13:38 15:20:53 56° 78° (ENE) 15:28:36 435.465 / 435.565
SWISSCUBE 26 Sep 15:25:11 15:30:00 83° 103° (ESE) 15:34:49 437.505
PCSat 26 Sep 15:36:03 15:39:54 20° 254° (WSW) 15:43:44 145.827
BEESAT 26 Sep 15:38:23 15:43:11 81° 285° (WNW) 15:47:59 436.000
MOZHAYETS 4 26 Sep 15:42:58 15:46:27 21° 93° (E) 15:49:54
TISAT 1 26 Sep 15:44:36 15:46:23 13° 298° (WNW) 15:48:11 437.305
PHONESAT 2.4 26 Sep 15:44:46 15:47:31 35° 198° (SSW) 15:50:17 2401.200-2431.200
BRITE-PL 26 Sep 16:05:51 16:08:55 15° 61° (ENE) 16:11:58 437.365/2234.400
KKS-1 26 Sep 16:19:58 16:23:52 30° 97° (E) 16:27:44 437.445
NOAA 15 26 Sep 16:24:46 16:25:23 10° 56° (NE) 16:26:01 137.62
ITAMSAT 1 26 Sep 16:24:52 16:28:01 16° 269° (W) 16:31:11 435.822/435.867
Cubesat XI-IV 26 Sep 16:35:17 16:35:39 10° 56° (NE) 16:36:02 437.490
CUTE-I 26 Sep 16:35:31 16:36:19 10° 56° (NE) 16:37:07 437.470
SO-50 26 Sep 16:36:55 16:41:34 46° 309° (NW) 16:46:12 436.795
HORYU 2 26 Sep 16:38:21 16:42:27 40° 70° (ENE) 16:46:35 437.375
AIST 1 26 Sep 16:38:36 16:42:52 65° 80° (E) 16:47:06
O/OREOS (USA 219) 26 Sep 16:42:34 16:46:26 26° 58° (ENE) 16:50:16 437.305
ITUPSAT 1 26 Sep 16:50:05 16:53:20 18° 297° (WNW) 16:56:34 437.325
STARS 26 Sep 16:57:59 17:02:02 36° 98° (E) 17:06:03 437.465
CUBESAT XI-V 26 Sep 16:58:37 17:01:42 17° 91° (E) 17:04:44 437.345
NOAA 18 26 Sep 17:00:21 17:03:32 16° 59° (ENE) 17:06:44 137.9125
AO-7 26 Sep 17:04:01 17:10:45 27° 266° (W) 17:17:30 29.400- 29.500
SWISSCUBE 26 Sep 17:05:16 17:07:06 12° 301° (WNW) 17:08:56 437.505
Cosmos 2491 26 Sep 17:06:00 17:13:13 28° 293° (WNW) 17:20:32 435.465 / 435.565
Cosmos 2504 26 Sep 17:07:50 17:13:48 27° 275° (W) 17:20:04 435.465 / 435.565
YUBILEINY 26 Sep 17:14:44 17:16:16 11° 288° (WNW) 17:17:49 435.215
MOZHAYETS 4 26 Sep 17:19:24 17:23:45 40° 289° (WNW) 17:28:05
GOMX 1 26 Sep 17:39:09 17:44:15 43° 71° (ENE) 17:49:08 467.674
BRITE-PL 26 Sep 17:40:56 17:46:38 87° 257° (WSW) 17:52:18 437.365/2234.400
HO-68 26 Sep 17:56:21 18:00:13 16° 52° (NE) 18:04:05 435.675
KKS-1 26 Sep 17:56:40 18:00:19 26° 293° (WNW) 18:03:58 437.445
NOAA 15 26 Sep 17:58:55 18:04:12 72° 74° (ENE) 18:09:31 137.62
DOVE 4 26 Sep 18:09:04 18:13:38 36° 71° (ENE) 18:18:01 437.250
Cubesat XI-IV 26 Sep 18:09:29 18:14:45 72° 74° (ENE) 18:20:05 437.490
CUTE-I 26 Sep 18:10:08 18:15:25 73° 74° (ENE) 18:20:44 437.470
HORYU 2 26 Sep 18:16:02 18:19:10 19° 267° (W) 18:22:18 437.375
LilacSat-2 26 Sep 18:17:39 18:21:24 88° 90° (E) 18:25:12 437.200
AIST 1 26 Sep 18:19:34 18:19:50 10° 277° (W) 18:20:05
O/OREOS (USA 219) 26 Sep 18:21:44 18:25:53 34° 255° (WSW) 18:29:59 437.305
Cosmos 2499 26 Sep 18:30:38 18:34:35 15° 62° (ENE) 18:38:39 435.465 / 435.565
CUBESAT XI-V 26 Sep 18:34:48 18:39:20 49° 288° (WNW) 18:43:49 437.345
STARS 26 Sep 18:34:52 18:38:09 21° 294° (WNW) 18:41:25 437.465
NOAA 18 26 Sep 18:38:04 18:43:32 77° 256° (WSW) 18:49:02 137.9125
RS-15 26 Sep 18:39:09 18:47:10 22° 98° (E) 18:55:24 29.354- 29.394
CUTE 1.7 + AOD 2 26 Sep 18:41:09 18:43:09 13° 63° (ENE) 18:45:09 437.475
CANX-2 26 Sep 18:41:33 18:44:01 15° 64° (ENE) 18:46:30 2200.000
SEEDS 26 Sep 18:46:58 18:47:34 10° 61° (ENE) 18:48:10 437.485
DANDE 26 Sep 18:59:58 19:02:34 14° 76° (ENE) 19:05:26 436.750
STRAND 1 26 Sep 19:01:29 19:04:34 16° 91° (E) 19:07:36 437.568
AAUSAT CUBESAT 2 26 Sep 19:13:29 19:14:32 11° 62° (ENE) 19:15:34 437.432
CUBEBUG 2 26 Sep 19:16:21 19:17:45 11° 63° (ENE) 19:19:10 437.445
GOMX 1 26 Sep 19:18:00 19:22:25 25° 266° (W) 19:26:42 467.674
CUSAT 1 26 Sep 19:21:37 19:27:34 65° 94° (E) 19:34:58 437.405
BRITE-PL 26 Sep 19:23:42 19:25:46 12° 273° (W) 19:27:49 437.365/2234.400
CINEMA 3 26 Sep 19:32:09 19:36:37 66° 75° (ENE) 19:40:55 145.822/145.860
GONETS M04 26 Sep 19:34:35 19:43:05 49° 75° (ENE) 19:51:29
UWE-3 26 Sep 19:37:08 19:38:59 13° 63° (ENE) 19:40:50 435.000/436.395/437.385
HO-68 26 Sep 19:39:37 19:46:46 75° 71° (ENE) 19:53:56 435.675
NOAA 15 26 Sep 19:41:42 19:44:30 14° 270° (W) 19:47:19 137.62
DOVE 4 26 Sep 19:47:09 19:51:21 26° 265° (W) 19:55:24 437.250
Cubesat XI-IV 26 Sep 19:52:33 19:55:21 14° 270° (W) 19:58:09 437.490
COMPASS 1 26 Sep 19:53:03 19:56:53 36° 71° (ENE) 20:00:45 437.405
CUTE-I 26 Sep 19:53:20 19:56:00 14° 270° (W) 19:58:42 437.470
ZACube-1 26 Sep 20:08:46 20:11:33 18° 66° (ENE) 20:14:21 437.345
Oscar 11 26 Sep 20:09:22 20:12:21 19° 65° (ENE) 20:15:22 145.826/435.025
CUTE 1.7 + AOD 2 26 Sep 20:14:19 20:18:28 59° 259° (W) 20:22:41 437.475
CANX-2 26 Sep 20:15:21 20:19:27 49° 261° (W) 20:23:36 2200.000
SEEDS 26 Sep 20:18:25 20:22:37 77° 260° (W) 20:26:51 437.485
Cosmos 2499 26 Sep 20:21:19 20:28:51 79° 81° (E) 20:36:59 435.465 / 435.565
AO-85 26 Sep 20:38:06 20:42:08 23° 112° (ESE) 20:46:00 145.980
DANDE 26 Sep 20:38:58 20:43:54 78° 282° (WNW) 20:50:35 436.750
STRAND 1 26 Sep 20:39:03 20:44:10 63° 287° (WNW) 20:49:14 437.568
PRISM 26 Sep 20:39:59 20:41:40 12° 91° (E) 20:43:22 437.425
DELFI C3 26 Sep 20:44:13 20:46:45 17° 66° (ENE) 20:49:20 145.870
AAUSAT CUBESAT 2 26 Sep 20:45:15 20:49:24 71° 259° (W) 20:53:36 437.432
RS-15 26 Sep 20:46:07 20:57:43 86° 120° (ESE) 21:10:00 29.354- 29.394
CUBEBUG 2 26 Sep 20:49:41 20:53:52 65° 259° (W) 20:58:01 437.445
ISS 26 Sep 20:50:25 20:53:31 44° 139° (SE) 20:56:39 145.825
FUNcube-1 26 Sep 21:02:09 21:06:14 64° 75° (ENE) 21:10:20 145.935
CUSAT 1 26 Sep 21:05:12 21:10:21 25° 298° (WNW) 21:16:18 437.405
UWE-3 26 Sep 21:10:52 21:14:58 57° 259° (W) 21:19:04 435.000/436.395/437.385
CINEMA 3 26 Sep 21:12:40 21:14:07 11° 270° (W) 21:15:33 145.822/145.860
COMPASS 1 26 Sep 21:29:39 21:32:34 18° 267° (W) 21:35:31 437.405
HO-68 26 Sep 21:30:05 21:35:08 20° 269° (W) 21:40:12 435.675
GONETS M04 26 Sep 21:31:50 21:39:38 37° 275° (W) 21:47:23
ZACube-1 26 Sep 21:43:41 21:47:34 38° 262° (W) 21:51:27 437.345
Oscar 11 26 Sep 21:44:08 21:48:11 40° 262° (W) 21:52:17 145.826/435.025
PRISM 26 Sep 22:13:16 22:17:19 54° 287° (WNW) 22:21:19 437.425
UNISAT 6 26 Sep 22:15:13 22:18:29 20° 94° (E) 22:21:47 437.425
HUMSAT D 26 Sep 22:15:38 22:19:43 89° 74° (ENE) 22:23:51 437.325/437.525
Cosmos 2499 26 Sep 22:16:11 22:21:09 19° 279° (W) 22:26:20 435.465 / 435.565
AO-85 26 Sep 22:17:17 22:22:21 51° 307° (NW) 22:27:05 145.980
DELFI C3 26 Sep 22:17:31 22:21:16 40° 262° (W) 22:25:04 145.870
DANDE 26 Sep 22:26:01 22:28:22 12° 307° (NW) 22:30:56 436.750
ISS 26 Sep 22:27:14 22:30:07 28° 337° (NNW) 22:33:01 145.825
ESTCUBE 1 26 Sep 22:34:43 22:38:22 25° 67° (ENE) 22:42:03 437.505/2401.250
VELOX 1 26 Sep 22:41:06 22:43:35 15° 63° (ENE) 22:46:02 145.980
FUNcube-1 26 Sep 22:42:30 22:42:54 10° 271° (W) 22:43:17 145.935
CUBEBUG 1 26 Sep 22:47:47 22:51:07 21° 66° (ENE) 22:54:27 437.445
ANTELSAT 26 Sep 22:49:56 22:54:11 46° 99° (E) 22:58:30 437.575/2403.000
RS-15 26 Sep 23:01:12 23:11:51 36° 327° (NNW) 23:22:56 29.354- 29.394
AUBIESAT-1 26 Sep 23:09:45 23:13:01 24° 64° (ENE) 23:16:06 437.475
TIGRISAT 26 Sep 23:10:45 23:15:09 75° 102° (ESE) 23:19:37 435.000
SO-50 26 Sep 23:28:10 23:31:54 24° 44° (NE) 23:35:34 436.795
AISAT 26 Sep 23:31:30 23:35:48 50° 72° (ENE) 23:40:07 437.250
SPROUT 26 Sep 23:34:26 23:38:01 27° 69° (ENE) 23:41:37 437.525
DUCHIFAT 1 26 Sep 23:44:44 23:47:53 20° 94° (E) 23:51:02 145.980
M-CUBED/EXP-1 PRIME 26 Sep 23:44:57 23:49:10 76° 71° (ENE) 23:53:03 437.505
QB50P1 26 Sep 23:45:13 23:48:38 24° 95° (E) 23:52:04 145.935-145.965
UKube-1 26 Sep 23:45:38 23:49:30 33° 69° (ENE) 23:53:24 .
UNISAT 6 26 Sep 23:51:15 23:55:18 38° 289° (WNW) 23:59:26 437.425
JAS-2 26 Sep 23:58:07 00:05:16 36° 94° (E) 00:12:06 435.910
POPSAT HIP 1 26 Sep 23:58:19 00:02:07 32° 97° (E) 00:05:55 437.405
AO-85 27 Sep 00:02:45 00:03:50 11° 326° (NNW) 00:04:53 145.980
ISS 27 Sep 00:05:27 00:07:25 15° 357° (N) 00:09:22 145.825
50 SAT 27 Sep 00:09:33 00:13:07 61° 259° (W) 00:16:46 437.505
ESTCUBE 1 27 Sep 00:10:55 00:15:00 33° 263° (W) 00:19:07 437.505/2401.250
DX 1 27 Sep 00:11:14 00:15:37 82° 75° (ENE) 00:20:01 434.975-435.025
VELOX 1 27 Sep 00:15:10 00:19:33 58° 259° (W) 00:23:58 145.980
NANOSAT C BR1 27 Sep 00:15:21 00:19:26 49° 100° (E) 00:23:30 145.865
CUBEBUG 1 27 Sep 00:23:04 00:27:10 37° 262° (W) 00:31:16 437.445
ANTELSAT 27 Sep 00:27:40 00:30:33 17° 295° (WNW) 00:33:28 437.575/2403.000
QB50P2 27 Sep 00:37:29 00:41:44 81° 283° (WNW) 00:45:56 145.880/145.840
POLYITAN 1 27 Sep 00:39:43 00:43:56 81° 284° (WNW) 00:48:10 437.675
BEESAT 2 27 Sep 00:42:34 00:43:01 10° 108° (ESE) 00:43:28 435.950
AUBIESAT-1 27 Sep 00:43:50 00:47:23 27° 258° (WSW) 00:50:43 437.475
TIGRISAT 27 Sep 00:49:50 00:51:15 11° 298° (WNW) 00:52:40 435.000
SWISSCUBE 27 Sep 00:57:38 00:59:21 12° 59° (ENE) 01:01:04 437.505
TISAT 1 27 Sep 00:58:45 01:02:45 45° 72° (ENE) 01:06:45 437.305
SO-50 27 Sep 01:08:13 01:12:35 45° 243° (WSW) 01:16:50 436.795
BEESAT 27 Sep 01:09:53 01:12:22 14° 61° (ENE) 01:14:51 436.000
AISAT 27 Sep 01:09:53 01:12:33 15° 268° (W) 01:15:11 437.250
SPROUT 27 Sep 01:10:17 01:13:53 26° 265° (W) 01:17:30 437.525
Cosmos 2491 27 Sep 01:17:25 01:25:17 34° 70° (ENE) 01:33:02 435.465 / 435.565
DUCHIFAT 1 27 Sep 01:19:53 01:23:39 33° 290° (WNW) 01:27:24 145.980
RS-15 27 Sep 01:20:09 01:29:26 24° 2° (N) 01:38:49 29.354- 29.394
QB50P1 27 Sep 01:20:46 01:24:24 29° 291° (WNW) 01:28:01 145.935-145.965
UKube-1 27 Sep 01:22:12 01:25:35 22° 265° (W) 01:28:59 .
BEESAT 3 27 Sep 01:23:17 01:27:08 63° 120° (ESE) 01:31:02 437.485
BUGSAT 1 27 Sep 01:27:00 01:30:59 66° 286° (WNW) 01:34:59 437.445
POPSAT HIP 1 27 Sep 01:34:30 01:37:43 22° 293° (WNW) 01:40:56 437.405
ISS 27 Sep 01:42:13 01:44:48 21° 17° (NNE) 01:47:24 145.825
JAS-2 27 Sep 01:42:51 01:50:23 51° 292° (WNW) 01:57:39 435.910
NANOSAT C BR1 27 Sep 01:52:20 01:54:45 15° 296° (WNW) 01:57:11 145.865
Oscar 19 27 Sep 02:04:59 02:10:03 53° 100° (E) 02:15:03 437.125/150
BEESAT 2 27 Sep 02:16:18 02:20:13 70° 304° (NW) 02:24:13 435.950
ITUPSAT 1 27 Sep 02:18:00 02:22:41 63° 73° (ENE) 02:27:25 437.325
YUBILEINY 27 Sep 02:18:28 02:25:53 32° 83° (E) 02:33:17 435.215
SWISSCUBE 27 Sep 02:31:40 02:36:26 84° 256° (WSW) 02:41:14 437.505
TISAT 1 27 Sep 02:36:11 02:38:37 15° 268° (W) 02:41:03 437.305
BEESAT 27 Sep 02:44:50 02:49:34 69° 258° (WSW) 02:54:20 436.000
MOZHAYETS 4 27 Sep 02:45:20 02:48:42 21° 66° (ENE) 02:52:06
Gurwin Techsat 1B 27 Sep 02:53:28 02:58:47 72° 102° (ESE) 03:04:06 435.225
ITAMSAT 1 27 Sep 02:56:21 03:00:17 21° 93° (E) 03:04:11 435.822/435.867
BEESAT 3 27 Sep 03:02:50 03:05:11 15° 318° (NW) 03:07:33 437.485
AO-7 27 Sep 03:11:53 03:17:39 20° 91° (E) 03:23:23 29.400- 29.500
Cosmos 2491 27 Sep 03:13:56 03:22:28 55° 270° (W) 03:30:57 435.465 / 435.565
KKS-1 27 Sep 03:18:14 03:22:05 29° 68° (ENE) 03:25:55 437.445
ISS 27 Sep 03:18:21 03:21:39 88° 221° (SW) 03:24:56 145.825
JAS-2 27 Sep 03:31:30 03:33:33 11° 312° (NW) 03:35:37 435.910
RS-15 27 Sep 03:35:23 03:46:47 40° 36° (NE) 03:58:02 29.354- 29.394
Oscar 19 27 Sep 03:45:16 03:48:57 20° 297° (WNW) 03:52:37 437.125/150
Cosmos 2504 27 Sep 03:52:49 03:59:48 46° 90° (E) 04:06:33 435.465 / 435.565
STARS 27 Sep 03:54:46 03:58:42 34° 70° (ENE) 04:02:40 437.465
BEESAT 2 27 Sep 03:58:28 03:58:48 10° 324° (NW) 03:59:09 435.950
ITUPSAT 1 27 Sep 03:58:31 04:00:56 14° 269° (W) 04:03:23 437.325
CUBESAT XI-V 27 Sep 04:02:19 04:05:30 18° 64° (ENE) 04:08:43 437.345
